Time,TemperatureF,DewpointF,PressureIn,WindDirection,WindDirectionDegrees,WindSpeedMPH,WindSpeedGustMPH,Humidity,HourlyPrecipIn,Conditions,Clouds,dailyrainin,SoftwareType,DateUTC
2013-06-14 00:00:00,54.4,53.8,29.53,NNW,345,2.0,9.0,98,0.00,-DZ,,0.00,WeatherDisplay:10.37,2013-06-14 04:00:00,
2013-06-14 00:09:00,54.2,53.7,29.54,NW,326,1.0,10.0,98,0.00,-RA,,0.00,WeatherDisplay:10.37,2013-06-14 04:09:00,
2013-06-14 00:19:00,54.1,53.6,29.54,NNE,23,2.0,8.0,98,0.00,-RA,,0.01,WeatherDisplay:10.37,2013-06-14 04:19:00,
2013-06-14 00:29:00,53.9,53.3,29.54,NNE,26,3.0,16.0,98,0.00,-RA,,0.02,WeatherDisplay:10.37,2013-06-14 04:29:00,
2013-06-14 00:40:00,53.8,53.2,29.54,NNE,22,3.0,12.0,98,0.00,-RA,,0.02,WeatherDisplay:10.37,2013-06-14 04:40:00,
2013-06-14 00:50:00,53.7,53.1,29.55,NNW,345,3.0,12.0,98,0.00,-RA,,0.02,WeatherDisplay:10.37,2013-06-14 04:50:00,
2013-06-14 01:00:00,53.7,53.1,29.56,North,353,1.0,13.0,98,0.01,-RA,,0.03,WeatherDisplay:10.37,2013-06-14 05:00:00,
2013-06-14 01:09:00,53.7,53.1,29.56,NNW,327,3.0,14.0,98,0.00,-RA,,0.03,WeatherDisplay:10.37,2013-06-14 05:09:00,
2013-06-14 01:19:00,53.6,53.0,29.57,North,9,3.0,12.0,98,0.01,-RA,,0.04,WeatherDisplay:10.37,2013-06-14 05:19:00,
2013-06-14 01:30:00,53.5,52.9,29.57,NNW,339,2.0,7.0,98,0.03,-RA,,0.07,WeatherDisplay:10.37,2013-06-14 05:30:00,
2013-06-14 01:40:00,53.4,52.9,29.58,NNW,345,1.0,8.0,98,0.00,-RA,,0.10,WeatherDisplay:10.37,2013-06-14 05:40:00,
2013-06-14 01:50:00,53.3,52.8,29.58,North,351,0.0,9.0,98,0.00,-RA,,0.12,WeatherDisplay:10.37,2013-06-14 05:50:00,
2013-06-14 02:00:00,53.3,52.8,29.58,NNW,333,0.0,7.0,98,0.00,-RA,,0.14,WeatherDisplay:10.37,2013-06-14 06:00:00,
2013-06-14 02:10:00,53.2,52.7,29.59,NW,323,3.0,16.0,98,0.02,-RA,,0.17,WeatherDisplay:10.37,2013-06-14 06:10:00,
2013-06-14 02:20:00,53.2,52.7,29.59,NNW,346,2.0,7.0,98,0.00,-RA,,0.19,WeatherDisplay:10.37,2013-06-14 06:20:00,
2013-06-14 02:29:00,53.2,52.9,29.59,NW,325,2.0,6.0,99,0.00,-RA,,0.21,WeatherDisplay:10.37,2013-06-14 06:29:00,
2013-06-14 02:40:00,53.2,52.9,29.60,NNW,331,1.0,10.0,99,0.00,-RA,,0.22,WeatherDisplay:10.37,2013-06-14 06:40:00,
2013-06-14 02:50:00,53.2,52.9,29.60,NNW,337,6.0,9.0,99,0.00,-RA,,0.23,WeatherDisplay:10.37,2013-06-14 06:50:00,
2013-06-14 03:00:00,53.1,52.8,29.60,NNW,338,5.0,10.0,99,0.00,-RA,,0.24,WeatherDisplay:10.37,2013-06-14 07:00:00,
2013-06-14 03:10:00,53.0,52.5,29.60,NW,314,5.0,10.0,98,0.02,-RA,,0.26,WeatherDisplay:10.37,2013-06-14 07:10:00,
2013-06-14 03:19:00,52.9,52.4,29.60,NNW,328,2.0,6.0,98,0.01,-RA,,0.29,WeatherDisplay:10.37,2013-06-14 07:19:00,
2013-06-14 03:29:00,52.7,52.2,29.60,NNW,338,2.0,12.0,98,0.00,-RA,,0.30,WeatherDisplay:10.37,2013-06-14 07:29:00,
2013-06-14 03:40:00,52.6,52.3,29.60,North,4,1.0,10.0,99,0.00,-RA,,0.31,WeatherDisplay:10.37,2013-06-14 07:40:00,
2013-06-14 03:49:00,52.5,52.2,29.61,NNW,343,3.0,9.0,99,0.00,-RA,,0.33,WeatherDisplay:10.37,2013-06-14 07:49:00,
2013-06-14 04:00:00,52.3,51.8,29.61,NNW,341,1.0,9.0,98,0.01,-RA,,0.37,WeatherDisplay:10.37,2013-06-14 08:00:00,
2013-06-14 04:10:00,52.1,51.6,29.60,North,354,5.0,10.0,98,0.00,-RA,,0.40,WeatherDisplay:10.37,2013-06-14 08:10:00,
2013-06-14 04:20:00,51.9,51.4,29.60,North,360,3.0,13.0,98,0.00,-RA,,0.42,WeatherDisplay:10.37,2013-06-14 08:20:00,
2013-06-14 04:30:00,51.9,51.3,29.60,North,7,1.0,6.0,98,0.00,-RA,,0.43,WeatherDisplay:10.37,2013-06-14 08:30:00,
2013-06-14 04:39:00,51.7,51.2,29.61,NNW,330,2.0,9.0,98,0.00,-RA,,0.44,WeatherDisplay:10.37,2013-06-14 08:39:00,
2013-06-14 04:50:00,51.8,51.2,29.64,NW,312,3.0,7.0,98,0.01,-RA,,0.45,WeatherDisplay:10.37,2013-06-14 08:50:00,
2013-06-14 05:00:00,51.7,51.2,29.64,NNW,331,5.0,8.0,98,0.00,-RA,,0.45,WeatherDisplay:10.37,2013-06-14 09:00:00,
2013-06-14 05:10:00,51.8,51.3,29.65,NW,314,2.0,8.0,98,0.00,-RA,,0.46,WeatherDisplay:10.37,2013-06-14 09:10:00,
2013-06-14 05:19:00,51.8,51.3,29.65,NNW,327,3.0,9.0,98,0.00,-RA,,0.47,WeatherDisplay:10.37,2013-06-14 09:19:00,
2013-06-14 05:29:00,51.8,51.5,29.65,NW,321,2.0,9.0,99,0.00,-RA,,0.47,WeatherDisplay:10.37,2013-06-14 09:29:00,
2013-06-14 05:40:00,51.7,51.4,29.65,NNW,340,3.0,7.0,99,0.00,-RA,,0.47,WeatherDisplay:10.37,2013-06-14 09:40:00,
2013-06-14 05:50:00,51.7,51.4,29.65,NW,323,2.0,8.0,99,0.00,-RA,,0.47,WeatherDisplay:10.37,2013-06-14 09:50:00,
2013-06-14 06:00:00,51.7,51.2,29.66,North,1,2.0,9.0,98,0.00,-RA,,0.47,WeatherDisplay:10.37,2013-06-14 10:00:00,
2013-06-14 06:09:00,51.8,51.2,29.67,NW,317,2.0,8.0,98,0.00,OVC,,0.47,WeatherDisplay:10.37,2013-06-14 10:09:00,
2013-06-14 06:20:00,51.9,51.6,29.67,NW,325,2.0,5.0,99,0.00,OVC,,0.47,WeatherDisplay:10.37,2013-06-14 10:20:00,
2013-06-14 06:29:00,51.9,51.6,29.67,NW,323,5.0,9.0,99,0.00,OVC,,0.47,WeatherDisplay:10.37,2013-06-14 10:29:00,
2013-06-14 06:40:00,52.1,51.8,29.67,NW,315,1.0,7.0,99,0.00,OVC,,0.47,WeatherDisplay:10.37,2013-06-14 10:40:00,
2013-06-14 06:50:00,52.2,51.7,29.68,NNW,333,2.0,9.0,98,0.00,OVC,,0.47,WeatherDisplay:10.37,2013-06-14 10:50:00,
2013-06-14 07:00:00,52.3,51.8,29.69,WNW,303,2.0,5.0,98,0.00,OVC,,0.47,WeatherDisplay:10.37,2013-06-14 11:00:00,
2013-06-14 07:10:00,52.4,52.1,29.69,NNW,329,2.0,6.0,99,0.00,OVC,,0.47,WeatherDisplay:10.37,2013-06-14 11:10:00,
2013-06-14 07:20:00,52.7,52.2,29.69,NW,320,2.0,9.0,98,0.00,OVC,,0.47,WeatherDisplay:10.37,2013-06-14 11:20:00,
2013-06-14 07:29:00,52.8,52.3,29.69,NW,325,3.0,7.0,98,0.00,OVC,,0.47,WeatherDisplay:10.37,2013-06-14 11:29:00,
2013-06-14 07:40:00,53.0,52.5,29.69,NW,321,2.0,8.0,98,0.00,OVC,,0.47,WeatherDisplay:10.37,2013-06-14 11:40:00,
2013-06-14 07:50:00,53.3,52.8,29.69,NW,318,3.0,7.0,98,0.00,OVC,,0.47,WeatherDisplay:10.37,2013-06-14 11:50:00,
2013-06-14 08:00:00,53.5,52.9,29.69,NNW,327,2.0,7.0,98,0.00,OVC,,0.47,WeatherDisplay:10.37,2013-06-14 12:00:00,
2013-06-14 08:10:00,53.9,53.3,29.70,NNW,331,1.0,4.0,98,0.00,OVC,,0.47,WeatherDisplay:10.37,2013-06-14 12:10:00,
2013-06-14 08:20:00,54.3,53.7,29.70,WNW,295,0.0,4.0,98,0.00,OVC,,0.47,WeatherDisplay:10.37,2013-06-14 12:20:00,
2013-06-14 08:30:00,54.5,53.6,29.70,NW,325,1.0,6.0,97,0.00,OVC,,0.47,WeatherDisplay:10.37,2013-06-14 12:30:00,
2013-06-14 08:40:00,54.8,54.0,29.71,NW,306,1.0,4.0,97,0.00,OVC,,0.47,WeatherDisplay:10.37,2013-06-14 12:40:00,
2013-06-14 08:50:00,54.9,54.1,29.71,NNW,345,0.0,6.0,97,0.00,OVC,,0.47,WeatherDisplay:10.37,2013-06-14 12:50:00,
2013-06-14 09:00:00,54.9,53.8,29.71,NNW,338,2.0,7.0,96,0.00,OVC,,0.47,WeatherDisplay:10.37,2013-06-14 13:00:00,
2013-06-14 09:10:00,55.2,54.1,29.72,NNW,331,3.0,7.0,96,0.00,BKN,,0.47,WeatherDisplay:10.37,2013-06-14 13:10:00,
2013-06-14 09:20:00,55.4,54.0,29.72,NNW,347,0.0,8.0,95,0.00,BKN,,0.47,WeatherDisplay:10.37,2013-06-14 13:20:00,
2013-06-14 09:30:00,55.8,54.4,29.73,NW,320,2.0,5.0,95,0.00,BKN,,0.47,WeatherDisplay:10.37,2013-06-14 13:30:00,
2013-06-14 09:40:00,56.1,54.4,29.74,NNW,333,0.0,6.0,94,0.00,BKN,,0.47,WeatherDisplay:10.37,2013-06-14 13:40:00,
2013-06-14 09:50:00,56.5,55.1,29.74,NW,317,2.0,5.0,95,0.00,BKN,,0.47,WeatherDisplay:10.37,2013-06-14 13:50:00,
2013-06-14 10:00:00,56.6,54.9,29.75,NNW,327,1.0,5.0,94,0.00,BKN,,0.47,WeatherDisplay:10.37,2013-06-14 14:00:00,
2013-06-14 10:10:00,56.9,54.9,29.75,NW,319,2.0,8.0,93,0.00,OVC,,0.47,WeatherDisplay:10.37,2013-06-14 14:10:00,
2013-06-14 10:20:00,57.2,54.9,29.75,NW,324,3.0,9.0,92,0.00,OVC,,0.47,WeatherDisplay:10.37,2013-06-14 14:20:00,
2013-06-14 10:30:00,58.0,55.4,29.76,WNW,302,0.0,5.0,91,0.00,OVC,,0.47,WeatherDisplay:10.37,2013-06-14 14:30:00,
2013-06-14 10:40:00,59.0,56.4,29.76,NNW,335,1.0,4.0,91,0.00,OVC,,0.47,WeatherDisplay:10.37,2013-06-14 14:40:00,
2013-06-14 10:50:00,59.4,56.2,29.77,NW,325,2.0,5.0,89,0.00,OVC,,0.47,WeatherDisplay:10.37,2013-06-14 14:50:00,
2013-06-14 11:00:00,60.4,57.8,29.78,NW,322,1.0,4.0,91,0.00,OVC,,0.47,WeatherDisplay:10.37,2013-06-14 15:00:00,
2013-06-14 11:10:00,60.8,55.6,29.77,NE,46,1.0,8.0,83,0.00,OVC,,0.47,WeatherDisplay:10.37,2013-06-14 15:10:00,
2013-06-14 11:20:00,61.0,55.8,29.78,ENE,63,0.0,14.0,83,0.00,OVC,,0.47,WeatherDisplay:10.37,2013-06-14 15:20:00,
2013-06-14 11:30:00,61.1,55.6,29.78,North,349,1.0,6.0,82,0.00,OVC,,0.47,WeatherDisplay:10.37,2013-06-14 15:30:00,
2013-06-14 11:40:00,61.7,55.4,29.78,NNE,22,3.0,6.0,80,0.00,OVC,,0.47,WeatherDisplay:10.37,2013-06-14 15:40:00,
2013-06-14 11:50:00,61.8,55.6,29.78,NNE,25,2.0,6.0,80,0.00,OVC,,0.47,WeatherDisplay:10.37,2013-06-14 15:50:00,
2013-06-14 12:00:00,62.3,56.4,29.78,NNW,337,0.0,5.0,81,0.00,OVC,,0.47,WeatherDisplay:10.37,2013-06-14 16:00:00,
2013-06-14 12:10:00,63.2,56.6,29.78,ENE,72,5.0,7.0,79,0.00,BKN,,0.47,WeatherDisplay:10.37,2013-06-14 16:10:00,
2013-06-14 12:20:00,64.3,58.0,29.78,ENE,78,1.0,5.0,80,0.00,BKN,,0.47,WeatherDisplay:10.37,2013-06-14 16:20:00,
2013-06-14 12:30:00,65.1,57.7,29.78,North,359,1.0,4.0,77,0.00,BKN,,0.47,WeatherDisplay:10.37,2013-06-14 16:30:00,
2013-06-14 12:40:00,66.0,58.2,29.78,West,277,0.0,5.0,76,0.00,BKN,,0.47,WeatherDisplay:10.37,2013-06-14 16:40:00,
2013-06-14 12:50:00,65.6,58.2,29.78,NNW,339,0.0,6.0,77,0.00,BKN,,0.47,WeatherDisplay:10.37,2013-06-14 16:50:00,
2013-06-14 13:00:00,65.6,59.3,29.77,NNE,25,0.0,3.0,80,0.00,BKN,,0.47,WeatherDisplay:10.37,2013-06-14 17:00:00,
2013-06-14 13:10:00,66.4,59.0,29.77,NW,304,0.0,4.0,77,0.00,BKN,,0.47,WeatherDisplay:10.37,2013-06-14 17:10:00,
2013-06-14 13:20:00,67.6,59.7,29.77,WNW,301,1.0,2.0,76,0.00,BKN,,0.47,WeatherDisplay:10.37,2013-06-14 17:20:00,
2013-06-14 13:30:00,68.6,60.4,29.77,North,8,1.0,4.0,75,0.00,BKN,,0.47,WeatherDisplay:10.37,2013-06-14 17:30:00,
2013-06-14 13:40:00,69.0,60.4,29.77,NNE,21,0.0,6.0,74,0.00,BKN,,0.47,WeatherDisplay:10.37,2013-06-14 17:40:00,
2013-06-14 13:50:00,69.1,59.7,29.77,North,8,0.0,7.0,72,0.00,BKN,,0.47,WeatherDisplay:10.37,2013-06-14 17:50:00,
2013-06-14 14:00:00,69.4,59.6,29.77,West,259,2.0,4.0,71,0.00,BKN,,0.47,WeatherDisplay:10.37,2013-06-14 18:00:00,
2013-06-14 14:10:00,70.1,61.0,29.77,WSW,241,3.0,7.0,73,0.00,SCT,,0.47,WeatherDisplay:10.37,2013-06-14 18:10:00,
2013-06-14 14:20:00,71.1,61.3,29.77,West,268,1.0,6.0,71,0.00,SCT,,0.47,WeatherDisplay:10.37,2013-06-14 18:20:00,
2013-06-14 14:30:00,71.3,61.0,29.77,NNW,336,3.0,7.0,70,0.00,SCT,,0.47,WeatherDisplay:10.37,2013-06-14 18:30:00,
2013-06-14 14:40:00,71.7,62.6,29.76,WNW,295,0.0,5.0,73,0.00,SCT,,0.47,WeatherDisplay:10.37,2013-06-14 18:40:00,
2013-06-14 14:50:00,72.4,62.1,29.76,WNW,285,1.0,4.0,70,0.00,SCT,,0.47,WeatherDisplay:10.37,2013-06-14 18:50:00,
2013-06-14 15:00:00,72.2,61.0,29.75,West,259,5.0,8.0,68,0.00,SCT,,0.47,WeatherDisplay:10.37,2013-06-14 19:00:00,
2013-06-14 15:10:00,72.4,61.2,29.75,WSW,241,2.0,7.0,68,0.00,SCT,,0.47,WeatherDisplay:10.37,2013-06-14 19:10:00,
2013-06-14 15:20:00,72.8,60.7,29.76,SW,215,1.0,9.0,66,0.00,SCT,,0.47,WeatherDisplay:10.37,2013-06-14 19:20:00,
2013-06-14 15:30:00,73.7,62.9,29.75,North,358,1.0,4.0,69,0.00,SCT,,0.47,WeatherDisplay:10.37,2013-06-14 19:30:00,
2013-06-14 15:40:00,74.2,62.5,29.75,NW,310,0.0,7.0,67,0.00,SCT,,0.47,WeatherDisplay:10.37,2013-06-14 19:40:00,
2013-06-14 15:50:00,74.4,61.4,29.75,West,277,1.0,9.0,64,0.00,SCT,,0.47,WeatherDisplay:10.37,2013-06-14 19:50:00,
2013-06-14 16:00:00,74.3,60.9,29.75,NW,319,5.0,10.0,63,0.00,SCT,,0.47,WeatherDisplay:10.37,2013-06-14 20:00:00,
2013-06-14 16:10:00,74.2,61.2,29.75,NW,323,3.0,9.0,64,0.00,SCT,,0.47,WeatherDisplay:10.37,2013-06-14 20:10:00,
2013-06-14 16:20:00,75.2,61.7,29.75,NW,313,1.0,8.0,63,0.00,SCT,,0.47,WeatherDisplay:10.37,2013-06-14 20:20:00,
2013-06-14 16:30:00,74.3,60.0,29.75,NW,318,5.0,7.0,61,0.00,SCT,,0.47,WeatherDisplay:10.37,2013-06-14 20:30:00,
2013-06-14 16:40:00,74.2,60.3,29.75,NW,319,2.0,7.0,62,0.00,SCT,,0.47,WeatherDisplay:10.37,2013-06-14 20:40:00,
2013-06-14 16:50:00,74.6,61.2,29.75,NW,309,1.0,8.0,63,0.00,SCT,,0.47,WeatherDisplay:10.37,2013-06-14 20:50:00,
2013-06-14 17:00:00,75.7,62.7,29.75,NW,324,0.0,7.0,64,0.00,SCT,,0.47,WeatherDisplay:10.37,2013-06-14 21:00:00,
2013-06-14 17:10:00,75.7,60.8,29.75,North,10,6.0,12.0,60,0.00,SCT,,0.47,WeatherDisplay:10.37,2013-06-14 21:10:00,
2013-06-14 17:20:00,74.1,60.7,29.76,North,358,2.0,12.0,63,0.00,SCT,,0.47,WeatherDisplay:10.37,2013-06-14 21:20:00,
2013-06-14 17:30:00,72.2,61.0,29.77,North,7,1.0,10.0,68,0.00,SCT,,0.47,WeatherDisplay:10.37,2013-06-14 21:30:00,
2013-06-14 17:40:00,71.3,61.8,29.77,WNW,288,1.0,5.0,72,0.00,SCT,,0.47,WeatherDisplay:10.37,2013-06-14 21:40:00,
2013-06-14 17:50:00,70.8,61.7,29.77,NW,321,1.0,3.0,73,0.00,SCT,,0.47,WeatherDisplay:10.37,2013-06-14 21:50:00,
2013-06-14 18:00:00,70.6,60.7,29.77,North,353,2.0,5.0,71,0.00,SCT,,0.47,WeatherDisplay:10.37,2013-06-14 22:00:00,
2013-06-14 18:10:00,70.3,60.0,29.78,NNW,338,1.0,6.0,70,0.00,BKN,,0.47,WeatherDisplay:10.37,2013-06-14 22:10:00,
2013-06-14 18:20:00,70.3,60.8,29.79,ENE,74,0.0,6.0,72,0.00,BKN,,0.47,WeatherDisplay:10.37,2013-06-14 22:20:00,
2013-06-14 18:30:00,69.8,60.8,29.79,NE,55,1.0,4.0,73,0.00,BKN,,0.47,WeatherDisplay:10.37,2013-06-14 22:30:00,
2013-06-14 18:40:00,69.2,60.9,29.79,SE,136,0.0,2.0,75,0.00,BKN,,0.47,WeatherDisplay:10.37,2013-06-14 22:40:00,
2013-06-14 18:50:00,68.6,60.7,29.79,SE,144,0.0,1.0,76,0.00,BKN,,0.47,WeatherDisplay:10.37,2013-06-14 22:50:00,
2013-06-14 19:00:00,68.0,58.6,29.80,NW,319,1.0,5.0,72,0.00,BKN,,0.47,WeatherDisplay:10.37,2013-06-14 23:00:00,
2013-06-14 19:10:00,67.6,58.3,29.80,NW,310,1.0,2.0,72,0.00,FEW,,0.47,WeatherDisplay:10.37,2013-06-14 23:10:00,
2013-06-14 19:20:00,67.2,59.0,29.80,NW,310,0.0,2.0,75,0.00,FEW,,0.47,WeatherDisplay:10.37,2013-06-14 23:20:00,
2013-06-14 19:30:00,66.5,59.1,29.81,NW,310,0.0,2.0,77,0.00,FEW,,0.47,WeatherDisplay:10.37,2013-06-14 23:30:00,
2013-06-14 19:40:00,65.7,58.3,29.81,NW,309,0.0,5.0,77,0.00,FEW,,0.47,WeatherDisplay:10.37,2013-06-14 23:40:00,
2013-06-14 19:50:00,65.4,58.7,29.80,NW,309,0.0,1.0,79,0.00,FEW,,0.47,WeatherDisplay:10.37,2013-06-14 23:50:00,
2013-06-14 20:00:00,64.8,57.8,29.81,NW,309,0.0,0.0,78,0.00,FEW,,0.47,WeatherDisplay:10.37,2013-06-15 00:00:00,
2013-06-14 20:10:00,64.2,58.2,29.81,NW,309,0.0,0.0,81,0.00,SCT,,0.47,WeatherDisplay:10.37,2013-06-15 00:10:00,
2013-06-14 20:20:00,63.4,58.1,29.81,NW,309,0.0,0.0,83,0.00,SCT,,0.47,WeatherDisplay:10.37,2013-06-15 00:20:00,
2013-06-14 20:30:00,62.7,58.1,29.81,NW,309,0.0,0.0,85,0.00,SCT,,0.47,WeatherDisplay:10.37,2013-06-15 00:30:00,
2013-06-14 20:40:00,62.2,57.9,29.82,NW,309,0.0,0.0,86,0.00,SCT,,0.47,WeatherDisplay:10.37,2013-06-15 00:40:00,
2013-06-14 20:50:00,61.8,57.6,29.82,NW,309,0.0,0.0,86,0.00,SCT,,0.47,WeatherDisplay:10.37,2013-06-15 00:50:00,
2013-06-14 21:00:00,61.5,57.6,29.83,NW,309,0.0,0.0,87,0.00,SCT,,0.47,WeatherDisplay:10.37,2013-06-15 01:00:00,
2013-06-14 21:10:00,61.3,57.7,29.83,NW,309,0.0,0.0,88,0.00,SCT,,0.47,WeatherDisplay:10.37,2013-06-15 01:10:00,
2013-06-14 21:20:00,60.8,57.5,29.83,NW,309,0.0,0.0,89,0.00,SCT,,0.47,WeatherDisplay:10.37,2013-06-15 01:20:00,
2013-06-14 21:30:00,60.3,57.4,29.83,NW,309,0.0,0.0,90,0.00,SCT,,0.47,WeatherDisplay:10.37,2013-06-15 01:30:00,
2013-06-14 21:40:00,59.8,57.2,29.84,NW,309,1.0,3.0,91,0.00,SCT,,0.47,WeatherDisplay:10.37,2013-06-15 01:40:00,
2013-06-14 21:50:00,59.4,57.0,29.84,NW,309,0.0,3.0,92,0.00,SCT,,0.47,WeatherDisplay:10.37,2013-06-15 01:50:00,
2013-06-14 22:00:00,59.0,57.0,29.85,NW,309,0.0,2.0,93,0.00,SCT,,0.47,WeatherDisplay:10.37,2013-06-15 02:00:00,
2013-06-14 22:10:00,59.0,57.0,29.85,NW,309,0.0,2.0,93,0.00,CLR,,0.47,WeatherDisplay:10.37,2013-06-15 02:10:00,
2013-06-14 22:20:00,58.8,56.8,29.85,NW,309,0.0,0.0,93,0.00,CLR,,0.47,WeatherDisplay:10.37,2013-06-15 02:20:00,
2013-06-14 22:30:00,58.6,56.6,29.85,NW,309,0.0,2.0,93,0.00,CLR,,0.47,WeatherDisplay:10.37,2013-06-15 02:30:00,
2013-06-14 22:40:00,58.6,56.6,29.86,NW,309,0.0,2.0,93,0.00,CLR,,0.47,WeatherDisplay:10.37,2013-06-15 02:40:00,
2013-06-14 22:50:00,58.5,56.5,29.85,NW,309,0.0,2.0,93,0.00,CLR,,0.47,WeatherDisplay:10.37,2013-06-15 02:50:00,
2013-06-14 23:00:00,58.2,56.5,29.85,NW,309,0.0,2.0,94,0.00,CLR,,0.47,WeatherDisplay:10.37,2013-06-15 03:00:00,
2013-06-14 23:10:00,58.0,56.3,29.85,NW,309,0.0,3.0,94,0.00,CLR,,0.47,WeatherDisplay:10.37,2013-06-15 03:10:00,
2013-06-14 23:20:00,57.8,56.4,29.85,NW,309,0.0,3.0,95,0.00,CLR,,0.47,WeatherDisplay:10.37,2013-06-15 03:20:00,
2013-06-14 23:30:00,57.5,56.1,29.85,NW,309,0.0,2.0,95,0.00,CLR,,0.47,WeatherDisplay:10.37,2013-06-15 03:30:00,
2013-06-14 23:39:00,57.3,55.9,29.86,NW,309,0.0,0.0,95,0.00,CLR,,0.47,WeatherDisplay:10.37,2013-06-15 03:39:00,
2013-06-14 23:49:00,57.1,56.0,29.86,NW,309,0.0,1.0,96,0.00,CLR,,0.47,WeatherDisplay:10.37,2013-06-15 03:49:00,